Location: Newark
(39.6867°N, 100.6772°W)
Time: 05:40:29
(UTC+00:00)

Vanguard 2 - All Passes

Search period start: 17 October 2019 00:00
Search period end: 27 October 2019 00:00
Orbit: 554 x 2937 km, 32.9° (Epoch: 16 October)

Date Brightness Start Highest point End Pass type
(mag) Time Alt. Az. Time Alt. Az. Time Alt. Az.
17 Oct - 01:43:46 10° SW 01:53:35 54° SSE 02:08:49 10° E visible
17 Oct - 03:51:52 10° W 04:04:36 67° S 04:22:12 10° ESE visible
17 Oct - 06:01:41 10° W 06:16:41 56° SSW 06:33:40 10° SE visible
17 Oct - 08:13:57 10° W 08:27:52 31° SW 08:41:16 10° SSE visible
17 Oct - 23:55:20 10° SSW 00:02:25 30° SE 00:12:54 10° E daylight
18 Oct - 02:01:24 10° WSW 02:11:26 59° SSE 02:27:05 10° E visible
18 Oct - 04:09:48 10° W 04:22:41 66° S 04:40:14 10° ESE visible
18 Oct - 06:19:51 10° W 06:34:36 49° SSW 06:51:06 10° SE visible
18 Oct - 08:33:08 10° W 08:45:24 24° SW 08:57:18 10° S visible
19 Oct - 00:12:25 10° SSW 00:19:53 37° SSE 00:31:28 10° E visible
19 Oct - 02:19:08 10° WSW 02:29:21 63° S 02:45:19 10° E visible
19 Oct - 04:27:47 10° W 04:40:45 62° S 04:58:12 10° ESE visible
19 Oct - 06:38:09 10° W 06:52:26 42° SSW 07:08:16 10° SSE visible
19 Oct - 08:53:10 10° W 09:02:53 18° SW 09:12:24 10° S visible
19 Oct - 22:26:24 10° SSE 22:30:00 14° SE 22:34:23 10° ESE daylight
20 Oct - 00:29:45 10° SW 00:37:28 45° SSE 00:49:52 10° E visible
20 Oct - 02:36:57 10° WSW 02:47:21 65° S 03:03:31 10° E visible
20 Oct - 04:45:48 10° W 04:58:47 57° SSW 05:15:59 10° ESE visible
20 Oct - 06:56:39 10° W 07:10:13 35° SSW 07:25:05 10° SSE visible
20 Oct - 09:15:40 10° WSW 09:20:22 12° SW 09:25:02 10° SSW visible
20 Oct - 22:42:21 10° S 22:47:15 20° SE 22:53:56 10° E daylight
21 Oct - 00:47:15 10° SW 00:55:11 52° SSE 01:08:11 10° E visible
21 Oct - 02:54:50 10° W 03:05:22 65° S 03:21:39 10° ESE visible
21 Oct - 05:03:53 10° W 05:16:46 51° SSW 05:33:34 10° SE visible
21 Oct - 07:15:28 10° W 07:27:56 28° SW 07:41:26 10° SSE night (unlit)
21 Oct - 22:59:05 10° SSW 23:04:37 27° SE 23:12:46 10° E daylight
22 Oct - 01:04:55 10° WSW 01:13:01 57° SSE 01:26:27 10° E visible
22 Oct - 03:12:45 10° W 03:23:24 62° S 03:39:42 10° ESE visible
22 Oct - 05:22:03 10° W 05:34:43 45° SSW 05:50:54 10° SE visible
22 Oct - 07:34:51 10° W 07:45:36 21° SW 07:57:06 10° S night (unlit)
22 Oct - 23:16:12 10° SSW 23:22:07 34° SSE 23:31:17 10° E daylight
23 Oct - 01:22:40 10° WSW 01:30:55 60° S 01:44:39 10° E visible
23 Oct - 03:30:42 10° W 03:41:27 58° SSW 03:57:36 10° ESE visible
23 Oct - 05:40:23 10° W 05:52:37 37° SSW 06:07:55 10° SSE visible
23 Oct - 07:55:25 10° WSW 08:03:16 15° SW 08:11:29 10° SSW night (unlit)
23 Oct - 21:30:46 10° SSE 21:32:35 11° SE 21:34:36 10° ESE daylight
23 Oct - 23:33:35 10° SW 23:39:44 41° SSE 23:49:38 10° E daylight
24 Oct - 01:40:28 10° WSW 01:48:52 61° S 02:02:49 10° ESE visible
24 Oct - 03:48:42 10° W 03:59:27 52° SSW 04:15:20 10° SE visible
24 Oct - 05:58:57 10° W 06:10:29 30° SSW 06:24:31 10° SSE visible
24 Oct - 21:46:20 10° S 21:49:55 17° SE 21:54:30 10° ESE daylight
24 Oct - 23:51:08 10° SW 23:57:27 48° SSE 00:07:54 10° E daylight
25 Oct - 01:58:20 10° W 02:06:51 60° S 02:20:55 10° ESE visible
25 Oct - 04:06:48 10° W 04:17:27 45° SSW 04:32:49 10° SE visible
25 Oct - 06:17:57 10° W 06:28:19 24° SW 06:40:32 10° S visible
25 Oct - 22:03:04 10° SSW 22:07:21 23° SE 22:13:19 10° E daylight
26 Oct - 00:08:48 10° WSW 00:15:16 53° SSE 00:26:06 10° E visible
26 Oct - 02:16:14 10° W 02:24:51 56° S 02:38:54 10° ESE visible
26 Oct - 04:25:00 10° W 04:35:25 38° SSW 04:50:00 10° SE visible
26 Oct - 06:37:46 10° WSW 06:46:08 17° SW 06:55:37 10° S night (unlit)
26 Oct - 22:20:13 10° SSW 22:24:53 30° SSE 22:31:47 10° E daylight
